Time,TemperatureF,DewpointF,PressureIn,WindDirection,WindDirectionDegrees,WindSpeedMPH,WindSpeedGustMPH,Humidity,HourlyPrecipIn,Conditions,Clouds,dailyrainin,SoftwareType,DateUTC
2013-04-10 00:00:00,64.3,61.9,30.11,South,174,0.0,1.0,92,0.00,,,0.00,Wunderground v.1.15,2013-04-10 04:00:00,
2013-04-10 00:05:00,64.3,61.9,30.11,South,174,0.0,1.0,92,0.00,,,0.00,Wunderground v.1.15,2013-04-10 04:05:00,
2013-04-10 00:10:00,64.3,61.9,30.11,South,174,1.0,1.0,92,0.00,,,0.00,Wunderground v.1.15,2013-04-10 04:10:00,
2013-04-10 00:20:00,64.2,61.8,30.11,South,174,0.0,0.0,92,0.00,,,0.00,Wunderground v.1.15,2013-04-10 04:20:00,
2013-04-10 00:30:00,64.1,61.7,30.11,South,174,0.0,0.0,92,0.00,,,0.00,Wunderground v.1.15,2013-04-10 04:30:00,
2013-04-10 00:35:00,64.0,61.6,30.11,South,174,1.0,1.0,92,0.00,,,0.00,Wunderground v.1.15,2013-04-10 04:35:00,
2013-04-10 00:45:00,63.9,61.8,30.10,South,173,1.0,1.0,93,0.00,,,0.00,Wunderground v.1.15,2013-04-10 04:45:00,
2013-04-10 00:55:00,63.8,61.7,30.10,South,179,0.0,0.0,93,0.00,,,0.00,Wunderground v.1.15,2013-04-10 04:55:00,
2013-04-10 01:05:00,63.8,61.7,30.10,South,189,0.0,0.0,93,0.00,,,0.00,Wunderground v.1.15,2013-04-10 05:05:00,
2013-04-10 01:15:00,63.7,61.6,30.10,South,189,0.0,0.0,93,0.00,,,0.00,Wunderground v.1.15,2013-04-10 05:15:00,
2013-04-10 01:25:00,63.6,61.5,30.10,South,189,0.0,1.0,93,0.00,,,0.00,Wunderground v.1.15,2013-04-10 05:25:00,
2013-04-10 01:30:00,63.6,61.5,30.09,South,189,0.0,0.0,93,0.00,,,0.00,Wunderground v.1.15,2013-04-10 05:30:00,
2013-04-10 01:35:00,63.5,61.4,30.09,South,189,0.0,0.0,93,0.00,,,0.00,Wunderground v.1.15,2013-04-10 05:35:00,
2013-04-10 01:45:00,63.4,61.6,30.09,South,189,0.0,0.0,94,0.00,,,0.00,Wunderground v.1.15,2013-04-10 05:45:00,
2013-04-10 01:55:00,63.3,61.5,30.08,South,189,0.0,1.0,94,0.00,,,0.00,Wunderground v.1.15,2013-04-10 05:55:00,
2013-04-10 02:05:00,63.2,61.4,30.08,South,184,0.0,0.0,94,0.00,,,0.00,Wunderground v.1.15,2013-04-10 06:05:00,
2013-04-10 02:10:00,63.2,61.4,30.08,South,186,0.0,0.0,94,0.00,,,0.00,Wunderground v.1.15,2013-04-10 06:10:00,
2013-04-10 02:20:00,63.1,61.3,30.07,South,185,0.0,0.0,94,0.00,,,0.00,Wunderground v.1.15,2013-04-10 06:20:00,
2013-04-10 02:30:00,63.2,61.7,30.07,South,185,0.0,0.0,95,0.00,,,0.00,Wunderground v.1.15,2013-04-10 06:30:00,
2013-04-10 02:40:00,63.2,61.7,30.07,SW,219,1.0,1.0,95,0.00,,,0.00,Wunderground v.1.15,2013-04-10 06:40:00,
2013-04-10 02:50:00,63.3,61.8,30.06,SSW,203,1.0,1.0,95,0.00,,,0.00,Wunderground v.1.15,2013-04-10 06:50:00,
2013-04-10 03:00:00,63.4,61.9,30.06,SSW,198,1.0,2.0,95,0.00,,,0.00,Wunderground v.1.15,2013-04-10 07:00:00,
2013-04-10 03:10:00,63.3,61.8,30.06,SSW,211,1.0,1.0,95,0.00,,,0.00,Wunderground v.1.15,2013-04-10 07:10:00,
2013-04-10 03:15:00,63.3,61.8,30.06,SW,214,1.0,1.0,95,0.00,,,0.00,Wunderground v.1.15,2013-04-10 07:15:00,
2013-04-10 03:25:00,63.3,61.8,30.06,SW,230,0.0,0.0,95,0.00,,,0.00,Wunderground v.1.15,2013-04-10 07:25:00,
2013-04-10 03:30:00,63.4,61.9,30.06,West,262,1.0,1.0,95,0.00,,,0.00,Wunderground v.1.15,2013-04-10 07:30:00,
2013-04-10 03:35:00,63.4,61.9,30.06,SSW,209,1.0,1.0,95,0.00,,,0.00,Wunderground v.1.15,2013-04-10 07:35:00,
2013-04-10 03:45:00,63.4,61.9,30.06,SW,227,1.0,1.0,95,0.00,,,0.00,Wunderground v.1.15,2013-04-10 07:45:00,
2013-04-10 03:55:00,63.4,61.6,30.07,WSW,240,1.0,1.0,94,0.00,,,0.00,Wunderground v.1.15,2013-04-10 07:55:00,
2013-04-10 04:05:00,63.2,61.4,30.07,SW,229,0.0,0.0,94,0.00,,,0.00,Wunderground v.1.15,2013-04-10 08:05:00,
2013-04-10 04:15:00,63.1,61.3,30.07,SW,229,0.0,0.0,94,0.00,,,0.00,Wunderground v.1.15,2013-04-10 08:15:00,
2013-04-10 04:25:00,62.8,61.0,30.07,WSW,239,0.0,0.0,94,0.00,,,0.00,Wunderground v.1.15,2013-04-10 08:25:00,
2013-04-10 04:35:00,62.5,60.7,30.07,WSW,239,0.0,0.0,94,0.00,,,0.00,Wunderground v.1.15,2013-04-10 08:35:00,
2013-04-10 04:45:00,62.3,60.8,30.07,WSW,239,0.0,0.0,95,0.00,,,0.00,Wunderground v.1.15,2013-04-10 08:45:00,
2013-04-10 04:55:00,62.1,60.7,30.07,WSW,239,0.0,0.0,95,0.00,,,0.00,Wunderground v.1.15,2013-04-10 08:55:00,
2013-04-10 05:00:00,61.8,60.1,30.08,WSW,239,0.0,0.0,94,0.00,,,0.00,Wunderground v.1.15,2013-04-10 09:00:00,
2013-04-10 05:10:00,61.5,60.1,30.08,WSW,239,0.0,0.0,95,0.00,,,0.00,Wunderground v.1.15,2013-04-10 09:10:00,
2013-04-10 05:20:00,61.1,59.7,30.08,WSW,239,0.0,0.0,95,0.00,,,0.00,Wunderground v.1.15,2013-04-10 09:20:00,
2013-04-10 05:25:00,60.9,59.5,30.08,WSW,239,0.0,0.0,95,0.00,,,0.00,Wunderground v.1.15,2013-04-10 09:25:00,
2013-04-10 05:35:00,60.6,59.2,30.08,WSW,239,0.0,0.0,95,0.00,,,0.00,Wunderground v.1.15,2013-04-10 09:35:00,
2013-04-10 05:40:00,60.3,58.9,30.08,WSW,239,0.0,0.0,95,0.00,,,0.00,Wunderground v.1.15,2013-04-10 09:40:00,
2013-04-10 05:50:00,59.9,58.5,30.08,WSW,239,0.0,0.0,95,0.00,,,0.00,Wunderground v.1.15,2013-04-10 09:50:00,
2013-04-10 06:00:00,59.6,58.2,30.08,WSW,239,0.0,0.0,95,0.00,,,0.00,Wunderground v.1.15,2013-04-10 10:00:00,
2013-04-10 06:10:00,59.5,58.4,30.09,WSW,239,0.0,0.0,96,0.00,,,0.00,Wunderground v.1.15,2013-04-10 10:10:00,
2013-04-10 06:20:00,59.1,57.7,30.09,WSW,239,0.0,0.0,95,0.00,,,0.00,Wunderground v.1.15,2013-04-10 10:20:00,
2013-04-10 06:30:00,59.3,58.4,30.09,WSW,239,0.0,0.0,97,0.00,,,0.00,Wunderground v.1.15,2013-04-10 10:30:00,
2013-04-10 06:35:00,59.2,58.1,30.09,WSW,239,0.0,0.0,96,0.00,,,0.00,Wunderground v.1.15,2013-04-10 10:35:00,
2013-04-10 06:45:00,59.3,58.4,30.09,WSW,239,0.0,0.0,97,0.00,,,0.00,Wunderground v.1.15,2013-04-10 10:45:00,
2013-04-10 06:50:00,59.6,58.7,30.10,West,261,0.0,0.0,97,0.00,,,0.00,Wunderground v.1.15,2013-04-10 10:50:00,
2013-04-10 07:00:00,60.0,59.1,30.10,West,261,0.0,0.0,97,0.00,,,0.00,Wunderground v.1.15,2013-04-10 11:00:00,
2013-04-10 07:05:00,60.0,59.1,30.10,West,261,0.0,0.0,97,0.00,,,0.00,Wunderground v.1.15,2013-04-10 11:05:00,
2013-04-10 07:15:00,60.1,59.2,30.10,West,261,0.0,0.0,97,0.00,,,0.00,Wunderground v.1.15,2013-04-10 11:15:00,
2013-04-10 07:25:00,60.1,59.2,30.11,West,261,0.0,0.0,97,0.00,,,0.00,Wunderground v.1.15,2013-04-10 11:25:00,
2013-04-10 07:35:00,60.5,59.6,30.11,West,261,0.0,0.0,97,0.00,,,0.00,Wunderground v.1.15,2013-04-10 11:35:00,
2013-04-10 07:45:00,61.0,60.4,30.11,West,261,0.0,0.0,98,0.00,,,0.00,Wunderground v.1.15,2013-04-10 11:45:00,
2013-04-10 07:50:00,61.3,60.4,30.11,West,261,0.0,0.0,97,0.00,,,0.00,Wunderground v.1.15,2013-04-10 11:50:00,
2013-04-10 08:00:00,62.0,61.1,30.11,West,261,0.0,0.0,97,0.00,,,0.00,Wunderground v.1.15,2013-04-10 12:00:00,
2013-04-10 08:10:00,62.7,61.8,30.12,West,261,0.0,0.0,97,0.00,,,0.00,Wunderground v.1.15,2013-04-10 12:10:00,
2013-04-10 08:20:00,63.2,62.0,30.12,West,262,1.0,1.0,96,0.00,,,0.00,Wunderground v.1.15,2013-04-10 12:20:00,
2013-04-10 08:30:00,64.0,62.5,30.12,South,189,1.0,1.0,95,0.00,,,0.00,Wunderground v.1.15,2013-04-10 12:30:00,
2013-04-10 08:40:00,64.8,63.0,30.12,SSW,198,1.0,3.0,94,0.00,,,0.00,Wunderground v.1.15,2013-04-10 12:40:00,
2013-04-10 08:45:00,65.4,63.0,30.13,SSW,202,2.0,3.0,92,0.00,,,0.00,Wunderground v.1.15,2013-04-10 12:45:00,
2013-04-10 08:55:00,66.5,63.2,30.13,SSW,195,2.0,2.0,89,0.00,,,0.00,Wunderground v.1.15,2013-04-10 12:55:00,
2013-04-10 09:05:00,67.2,63.2,30.13,WNW,283,2.0,2.0,87,0.00,,,0.00,Wunderground v.1.15,2013-04-10 13:05:00,
2013-04-10 09:15:00,68.1,63.8,30.13,WNW,286,2.0,6.0,86,0.00,,,0.00,Wunderground v.1.15,2013-04-10 13:15:00,
2013-04-10 09:25:00,69.4,64.0,30.13,SW,225,2.0,4.0,83,0.00,,,0.00,Wunderground v.1.15,2013-04-10 13:25:00,
2013-04-10 09:35:00,70.5,64.4,30.13,SSW,202,2.0,3.0,81,0.00,,,0.00,Wunderground v.1.15,2013-04-10 13:35:00,
2013-04-10 09:45:00,71.5,64.3,30.13,SSE,160,2.0,2.0,78,0.00,,,0.00,Wunderground v.1.15,2013-04-10 13:45:00,
2013-04-10 09:55:00,72.1,64.5,30.13,SSW,193,2.0,3.0,77,0.00,,,0.00,Wunderground v.1.15,2013-04-10 13:55:00,
2013-04-10 10:05:00,72.5,64.1,30.13,WSW,248,3.0,5.0,75,0.00,,,0.00,Wunderground v.1.15,2013-04-10 14:05:00,
2013-04-10 10:15:00,73.0,64.2,30.13,SSE,159,3.0,5.0,74,0.00,,,0.00,Wunderground v.1.15,2013-04-10 14:15:00,
2013-04-10 10:25:00,73.5,64.3,30.13,WSW,245,3.0,3.0,73,0.00,,,0.00,Wunderground v.1.15,2013-04-10 14:25:00,
2013-04-10 10:35:00,74.1,63.7,30.13,WNW,294,3.0,6.0,70,0.00,,,0.00,Wunderground v.1.15,2013-04-10 14:35:00,
2013-04-10 10:45:00,74.8,63.9,30.13,West,264,3.0,6.0,69,0.00,,,0.00,Wunderground v.1.15,2013-04-10 14:45:00,
2013-04-10 10:55:00,75.9,64.2,30.13,West,272,3.0,4.0,67,0.00,,,0.00,Wunderground v.1.15,2013-04-10 14:55:00,
2013-04-10 11:05:00,76.6,63.5,30.12,West,271,3.0,3.0,64,0.00,,,0.00,Wunderground v.1.15,2013-04-10 15:05:00,
2013-04-10 11:10:00,76.6,62.6,30.12,WNW,294,3.0,3.0,62,0.00,,,0.00,Wunderground v.1.15,2013-04-10 15:10:00,
2013-04-10 11:20:00,76.9,62.9,30.12,West,267,3.0,3.0,62,0.00,,,0.00,Wunderground v.1.15,2013-04-10 15:20:00,
2013-04-10 11:25:00,77.0,63.0,30.12,West,263,4.0,4.0,62,0.00,,,0.00,Wunderground v.1.15,2013-04-10 15:25:00,
2013-04-10 11:35:00,77.4,62.4,30.13,West,273,3.0,3.0,60,0.00,,,0.00,Wunderground v.1.15,2013-04-10 15:35:00,
2013-04-10 11:40:00,77.4,63.4,30.12,West,261,3.0,3.0,62,0.00,,,0.00,Wunderground v.1.15,2013-04-10 15:40:00,
2013-04-10 11:50:00,78.1,63.6,30.12,SW,228,2.0,3.0,61,0.00,,,0.00,Wunderground v.1.15,2013-04-10 15:50:00,
2013-04-10 11:55:00,78.4,63.4,30.12,WNW,282,3.0,3.0,60,0.00,,,0.00,Wunderground v.1.15,2013-04-10 15:55:00,
2013-04-10 12:00:00,77.8,63.3,30.12,SSW,207,3.0,4.0,61,0.00,,,0.00,Wunderground v.1.15,2013-04-10 16:00:00,
2013-04-10 12:05:00,77.9,63.8,30.12,SE,125,3.0,4.0,62,0.00,,,0.00,Wunderground v.1.15,2013-04-10 16:05:00,
2013-04-10 12:15:00,78.4,63.4,30.11,NNE,24,3.0,3.0,60,0.00,,,0.00,Wunderground v.1.15,2013-04-10 16:15:00,
2013-04-10 12:25:00,78.5,64.9,30.11,SSW,193,3.0,3.0,63,0.00,,,0.00,Wunderground v.1.15,2013-04-10 16:25:00,
2013-04-10 12:30:00,78.5,63.9,30.10,ESE,123,3.0,3.0,61,0.00,,,0.00,Wunderground v.1.15,2013-04-10 16:30:00,
2013-04-10 12:35:00,78.8,65.6,30.10,SSW,206,3.0,4.0,64,0.00,,,0.00,Wunderground v.1.15,2013-04-10 16:35:00,
2013-04-10 12:45:00,79.2,65.1,30.10,SSE,167,3.0,5.0,62,0.00,,,0.00,Wunderground v.1.15,2013-04-10 16:45:00,
2013-04-10 12:55:00,78.7,65.5,30.10,SE,130,4.0,5.0,64,0.00,,,0.00,Wunderground v.1.15,2013-04-10 16:55:00,
2013-04-10 13:05:00,78.2,65.0,30.09,SE,124,5.0,6.0,64,0.00,,,0.00,Wunderground v.1.15,2013-04-10 17:05:00,
2013-04-10 13:10:00,78.0,64.8,30.09,SE,142,5.0,7.0,64,0.00,,,0.00,Wunderground v.1.15,2013-04-10 17:10:00,
2013-04-10 13:20:00,77.6,64.5,30.09,South,170,6.0,6.0,64,0.00,,,0.00,Wunderground v.1.15,2013-04-10 17:20:00,
2013-04-10 13:30:00,78.1,64.9,30.09,SE,138,5.0,5.0,64,0.00,,,0.00,Wunderground v.1.15,2013-04-10 17:30:00,
2013-04-10 13:35:00,78.5,64.9,30.09,SSE,163,4.0,5.0,63,0.00,,,0.00,Wunderground v.1.15,2013-04-10 17:35:00,
2013-04-10 13:45:00,78.7,65.0,30.08,South,176,4.0,5.0,63,0.00,,,0.00,Wunderground v.1.15,2013-04-10 17:45:00,
2013-04-10 13:55:00,78.7,65.0,30.08,ESE,107,5.0,5.0,63,0.00,,,0.00,Wunderground v.1.15,2013-04-10 17:55:00,
2013-04-10 14:00:00,78.6,64.5,30.08,South,179,5.0,6.0,62,0.00,,,0.00,Wunderground v.1.15,2013-04-10 18:00:00,
2013-04-10 14:10:00,78.9,64.8,30.08,SSE,161,4.0,9.0,62,0.00,,,0.00,Wunderground v.1.15,2013-04-10 18:10:00,
2013-04-10 14:15:00,78.4,64.3,30.08,SSE,150,5.0,9.0,62,0.00,,,0.00,Wunderground v.1.15,2013-04-10 18:15:00,
2013-04-10 14:25:00,78.2,64.6,30.07,SSW,194,5.0,5.0,63,0.00,,,0.00,Wunderground v.1.15,2013-04-10 18:25:00,
2013-04-10 14:30:00,78.5,64.4,30.07,South,174,5.0,5.0,62,0.00,,,0.00,Wunderground v.1.15,2013-04-10 18:30:00,
2013-04-10 14:40:00,77.8,64.2,30.07,SSE,159,6.0,6.0,63,0.00,,,0.00,Wunderground v.1.15,2013-04-10 18:40:00,
2013-04-10 14:45:00,77.7,64.1,30.07,SSW,206,6.0,8.0,63,0.00,,,0.00,Wunderground v.1.15,2013-04-10 18:45:00,
2013-04-10 14:55:00,77.3,64.6,30.06,SSW,198,6.0,8.0,65,0.00,,,0.00,Wunderground v.1.15,2013-04-10 18:55:00,
2013-04-10 15:05:00,77.5,64.4,30.06,SE,131,6.0,7.0,64,0.00,,,0.00,Wunderground v.1.15,2013-04-10 19:05:00,
2013-04-10 15:15:00,78.3,64.2,30.05,SE,139,5.0,7.0,62,0.00,,,0.00,Wunderground v.1.15,2013-04-10 19:15:00,
2013-04-10 15:20:00,77.7,64.1,30.04,SE,137,6.0,6.0,63,0.00,,,0.00,Wunderground v.1.15,2013-04-10 19:20:00,
2013-04-10 15:30:00,77.5,63.9,30.04,South,173,6.0,6.0,63,0.00,,,0.00,Wunderground v.1.15,2013-04-10 19:30:00,
2013-04-10 15:35:00,77.5,63.9,30.04,ESE,116,6.0,6.0,63,0.00,,,0.00,Wunderground v.1.15,2013-04-10 19:35:00,
2013-04-10 15:45:00,77.2,63.6,30.04,SE,125,6.0,7.0,63,0.00,,,0.00,Wunderground v.1.15,2013-04-10 19:45:00,
2013-04-10 15:55:00,77.5,63.5,30.04,South,182,5.0,8.0,62,0.00,,,0.00,Wunderground v.1.15,2013-04-10 19:55:00,
2013-04-10 16:05:00,77.6,63.1,30.04,South,176,5.0,9.0,61,0.00,,,0.00,Wunderground v.1.15,2013-04-10 20:05:00,
2013-04-10 16:10:00,77.3,62.8,30.04,ESE,111,6.0,8.0,61,0.00,,,0.00,Wunderground v.1.15,2013-04-10 20:10:00,
2013-04-10 16:20:00,77.1,61.7,30.03,SSW,195,6.0,6.0,59,0.00,,,0.00,Wunderground v.1.15,2013-04-10 20:20:00,
2013-04-10 16:25:00,77.3,61.9,30.03,SSE,159,5.0,7.0,59,0.00,,,0.00,Wunderground v.1.15,2013-04-10 20:25:00,
2013-04-10 16:35:00,77.5,61.6,30.03,South,176,5.0,8.0,58,0.00,,,0.00,Wunderground v.1.15,2013-04-10 20:35:00,
2013-04-10 16:40:00,77.6,61.2,30.02,SE,146,5.0,5.0,57,0.00,,,0.00,Wunderground v.1.15,2013-04-10 20:40:00,
2013-04-10 16:45:00,77.6,61.2,30.02,SSE,157,5.0,5.0,57,0.00,,,0.00,Wunderground v.1.15,2013-04-10 20:45:00,
2013-04-10 16:55:00,77.2,60.3,30.02,SE,142,5.0,5.0,56,0.00,,,0.00,Wunderground v.1.15,2013-04-10 20:55:00,
2013-04-10 17:05:00,76.3,59.4,30.02,SE,132,6.0,9.0,56,0.00,,,0.00,Wunderground v.1.15,2013-04-10 21:05:00,
2013-04-10 17:15:00,75.9,60.1,30.02,SSW,195,6.0,6.0,58,0.00,,,0.00,Wunderground v.1.15,2013-04-10 21:15:00,
2013-04-10 17:25:00,75.5,60.2,30.02,SE,129,6.0,7.0,59,0.00,,,0.00,Wunderground v.1.15,2013-04-10 21:25:00,
2013-04-10 17:30:00,75.4,60.1,30.02,SSW,200,6.0,6.0,59,0.00,,,0.00,Wunderground v.1.15,2013-04-10 21:30:00,
2013-04-10 17:40:00,75.2,60.4,30.02,SE,143,5.0,5.0,60,0.00,,,0.00,Wunderground v.1.15,2013-04-10 21:40:00,
2013-04-10 17:50:00,74.7,60.4,30.02,SE,136,5.0,6.0,61,0.00,,,0.00,Wunderground v.1.15,2013-04-10 21:50:00,
2013-04-10 18:00:00,74.8,61.4,30.02,SE,128,4.0,5.0,63,0.00,,,0.00,Wunderground v.1.15,2013-04-10 22:00:00,
2013-04-10 18:10:00,74.7,61.7,30.02,ESE,108,4.0,4.0,64,0.00,,,0.00,Wunderground v.1.15,2013-04-10 22:10:00,
2013-04-10 18:20:00,74.3,61.8,30.02,ESE,119,3.0,4.0,65,0.00,,,0.00,Wunderground v.1.15,2013-04-10 22:20:00,
2013-04-10 18:30:00,73.7,61.6,30.02,SSW,202,4.0,4.0,66,0.00,,,0.00,Wunderground v.1.15,2013-04-10 22:30:00,
2013-04-10 18:35:00,73.6,61.5,30.02,SSE,153,3.0,4.0,66,0.00,,,0.00,Wunderground v.1.15,2013-04-10 22:35:00,
2013-04-10 18:45:00,72.9,61.3,30.02,SSE,156,4.0,4.0,67,0.00,,,0.00,Wunderground v.1.15,2013-04-10 22:45:00,
2013-04-10 18:55:00,72.2,61.5,30.01,SSE,150,4.0,4.0,69,0.00,,,0.00,Wunderground v.1.15,2013-04-10 22:55:00,
2013-04-10 19:00:00,71.7,61.0,30.01,SSE,164,4.0,4.0,69,0.00,,,0.00,Wunderground v.1.15,2013-04-10 23:00:00,
2013-04-10 19:10:00,70.7,61.2,30.01,SE,134,4.0,4.0,72,0.00,,,0.00,Wunderground v.1.15,2013-04-10 23:10:00,
2013-04-10 19:20:00,70.0,61.3,30.01,SE,144,4.0,4.0,74,0.00,,,0.00,Wunderground v.1.15,2013-04-10 23:20:00,
2013-04-10 19:30:00,69.4,61.5,30.00,SSE,150,4.0,5.0,76,0.00,,,0.00,Wunderground v.1.15,2013-04-10 23:30:00,
2013-04-10 19:40:00,68.9,61.8,30.00,SSE,159,4.0,4.0,78,0.00,,,0.00,Wunderground v.1.15,2013-04-10 23:40:00,
2013-04-10 19:50:00,68.5,62.1,30.00,SE,137,4.0,4.0,80,0.00,,,0.00,Wunderground v.1.15,2013-04-10 23:50:00,
2013-04-10 20:00:00,68.2,62.5,30.00,SE,134,3.0,3.0,82,0.00,,,0.00,Wunderground v.1.15,2013-04-11 00:00:00,
2013-04-10 20:10:00,67.9,62.2,30.00,SSE,162,3.0,3.0,82,0.00,,,0.00,Wunderground v.1.15,2013-04-11 00:10:00,
2013-04-10 20:20:00,67.6,62.3,30.00,ESE,117,3.0,4.0,83,0.00,,,0.00,Wunderground v.1.15,2013-04-11 00:20:00,
2013-04-10 20:25:00,67.6,62.3,30.00,South,184,3.0,4.0,83,0.00,,,0.00,Wunderground v.1.15,2013-04-11 00:25:00,
2013-04-10 20:35:00,67.4,62.1,30.00,SE,126,2.0,3.0,83,0.00,,,0.00,Wunderground v.1.15,2013-04-11 00:35:00,
2013-04-10 20:40:00,67.3,62.0,30.00,SSE,159,2.0,2.0,83,0.00,,,0.00,Wunderground v.1.15,2013-04-11 00:40:00,
2013-04-10 20:50:00,67.1,62.1,30.00,SE,135,3.0,3.0,84,0.00,,,0.00,Wunderground v.1.15,2013-04-11 00:50:00,
2013-04-10 20:55:00,67.1,62.1,30.01,SE,140,2.0,3.0,84,0.00,,,0.00,Wunderground v.1.15,2013-04-11 00:55:00,
2013-04-10 21:00:00,67.0,62.3,30.01,SSE,160,2.0,2.0,85,0.00,,,0.00,Wunderground v.1.15,2013-04-11 01:00:00,
2013-04-10 21:10:00,66.8,62.1,30.01,SE,136,2.0,2.0,85,0.00,,,0.00,Wunderground v.1.15,2013-04-11 01:10:00,
2013-04-10 21:15:00,66.7,62.0,30.01,South,180,2.0,6.0,85,0.00,,,0.00,Wunderground v.1.15,2013-04-11 01:15:00,
2013-04-10 21:25:00,66.5,62.2,30.01,South,181,2.0,3.0,86,0.00,,,0.00,Wunderground v.1.15,2013-04-11 01:25:00,
2013-04-10 21:30:00,66.3,62.0,30.01,SSW,194,2.0,2.0,86,0.00,,,0.00,Wunderground v.1.15,2013-04-11 01:30:00,
2013-04-10 21:40:00,66.2,61.9,30.01,ESE,119,1.0,1.0,86,0.00,,,0.00,Wunderground v.1.15,2013-04-11 01:40:00,
2013-04-10 21:50:00,66.1,61.8,30.01,South,173,1.0,2.0,86,0.00,,,0.00,Wunderground v.1.15,2013-04-11 01:50:00,
2013-04-10 21:55:00,66.1,62.1,30.01,SSW,213,1.0,4.0,87,0.00,,,0.00,Wunderground v.1.15,2013-04-11 01:55:00,
2013-04-10 22:05:00,66.1,62.1,30.01,South,186,1.0,1.0,87,0.00,,,0.00,Wunderground v.1.15,2013-04-11 02:05:00,
2013-04-10 22:10:00,66.1,62.1,30.01,South,177,2.0,2.0,87,0.00,,,0.00,Wunderground v.1.15,2013-04-11 02:10:00,
2013-04-10 22:15:00,66.1,62.1,30.01,South,187,2.0,2.0,87,0.00,,,0.00,Wunderground v.1.15,2013-04-11 02:15:00,
2013-04-10 22:25:00,66.1,62.1,30.01,South,171,1.0,1.0,87,0.00,,,0.00,Wunderground v.1.15,2013-04-11 02:25:00,
2013-04-10 22:35:00,66.0,62.0,30.01,SSW,197,1.0,1.0,87,0.00,,,0.00,Wunderground v.1.15,2013-04-11 02:35:00,
2013-04-10 22:40:00,66.0,62.3,30.00,SSW,195,1.0,2.0,88,0.00,,,0.00,Wunderground v.1.15,2013-04-11 02:40:00,
2013-04-10 22:50:00,65.9,62.2,30.00,South,187,1.0,1.0,88,0.00,,,0.00,Wunderground v.1.15,2013-04-11 02:50:00,
2013-04-10 23:00:00,65.8,62.1,30.00,SSE,158,1.0,1.0,88,0.00,,,0.00,Wunderground v.1.15,2013-04-11 03:00:00,
2013-04-10 23:05:00,65.8,62.1,30.00,South,191,1.0,1.0,88,0.00,,,0.00,Wunderground v.1.15,2013-04-11 03:05:00,
2013-04-10 23:15:00,65.7,62.4,30.00,SSE,148,1.0,2.0,89,0.00,,,0.00,Wunderground v.1.15,2013-04-11 03:15:00,
2013-04-10 23:25:00,65.5,62.2,30.00,SSE,166,1.0,1.0,89,0.00,,,0.00,Wunderground v.1.15,2013-04-11 03:25:00,
2013-04-10 23:30:00,65.5,62.2,30.00,South,171,1.0,1.0,89,0.00,,,0.00,Wunderground v.1.15,2013-04-11 03:30:00,
2013-04-10 23:40:00,65.2,62.2,30.00,South,180,0.0,1.0,90,0.00,,,0.00,Wunderground v.1.15,2013-04-11 03:40:00,
2013-04-10 23:50:00,65.1,62.1,30.00,South,186,0.0,2.0,90,0.00,,,0.00,Wunderground v.1.15,2013-04-11 03:50:00,
2013-04-10 23:55:00,65.0,62.0,30.00,South,186,0.0,2.0,90,0.00,,,0.00,Wunderground v.1.15,2013-04-11 03:55:00,